User: anonymous   Login
Location: Vale
(35.4830°N, 81.3830°W)
Time: 23:25:51
(UTC-04:00)
Language:

Oscar 11 - Orbit

View from above orbital plane
View from above orbital plane
View from above satellite
View from above satellite

Ground track
Ground track

The orbit data is extracted from the following two-line orbital elements,

1 14781U 84021B   16270.19020616  .00000208  00000-0  32093-4 0  9998
2 14781  97.7383 319.0421 0008224 354.5053   5.6069 14.82796944751228
Epoch (UTC): 26 September 2016 04:33:53
Eccentricity: 0.0008224
inclination: 97.7383°
perigee height: 615 km
apogee height: 626 km
right ascension of ascending node: 319.0421°
argument of perigee: 354.5053°
revolutions per day: 14.82796944
mean anomaly at epoch: 5.6069°
orbit number at epoch: 75122

The dashed part of the orbit path shows where the satellite is in the earth's shadow,  

DLR